sat.trackr.live / text

‹ back to catalog

STARLINK-11193 [DTC]

NORAD 60195 · 2024-124N

PAYLOAD ACTIVE UNKNOWN

§ Identity

Operator
Country
US
Launch date
2024-07-03
Launch site
AFETR
Launch vehicle
Mass (kg)
RCS (m²)

Purposes: comms

External: N2YO · Heavens-Above · Gunter

§ Orbital elements

Epoch: 2026-05-25T03:38:18.629664Z

Period
91.74 min
Inclination
53.1594°
Eccentricity
0.0000964
Mean motion
15.69693583 rev/d
Perigee alt
359.1 km
Apogee alt
360.4 km
Semi-major
6,737.9 km
B*
4.1023e-6
RAAN
144.2960°
Arg perigee
72.5918°
Mean anomaly
287.5205°
Rev number
10,854

§ Raw data

STARLINK-11193 [DTC]1 60195U 24124N   26145.15160451 -.00000092  00000+0  41023-5 0  99912 60195  53.1594 144.2960 0000964  72.5918 287.5205 15.69693583108549

JSON: /api/v1/satellites/60195 · /tle

For live sub-satellite position, see the globe view (requires WebGL).

§ Visibility from observer

Set your observer location to see the next 7 days of passes ≥ 10°. The values pass through the URL so the page stays shareable.

No JS? Fill the form by hand. The geolocation button needs JavaScript.